Tracking 17855 objects as of 25-September-2016
HD Live streaming from Space Station
objects crossing your sky now

COSMOS 1596

Track COSMOS 1596 now!
COSMOS 1596 is classified as:


NORAD ID: 15267
Int'l Code: 1984-096A
Perigee: 4,749.6 km
Apogee: 35,728.9 km
Inclination: 68.1 °
Period: 720.0 minutes
Semi major axis: 26610 km
RCS: 8.4284 m2 (large)
Launch date: September 7, 1984
Source: Commonwealth of Independent States (former USSR) (CIS)
Launch site: PLESETSK MISSILE AND SPACE COMPLEX (PKMTR)
Your satellite tracking list
Your tracking list is empty





NASA's NSSDC Master Catalog

Two Line Element Set (TLE):
1 15267U 84096A   16268.90205985 +.00000825 +00000-0 +30382+0 0  9999
2 15267 068.1314 019.0706 5820937 096.0198 339.8422 02.00813214234759
Source of the keplerian elements: AFSPC

N2YO: 542